,,PA_Meas_PMT16A,,PR_Meas_QMR101_102,,RH_Meas_QMH101,,SR_Meas_QMS101,,TA_Meas_QMH101,,GenWind,,GenWind,
time,status,PA,status,PR,status,RH,status,SR,status,TA,status,DirAvg,status,SpdAvg,
2009-08-24, 00:00:04,VALID,918.4,VALID,0,VALID,94.4236,VALID,0,VALID,20.2622,VALID,358,VALID,0,
2009-08-24, 00:01:04,VALID,918.388,VALID,0,VALID,94.3779,VALID,0,VALID,20.2817,VALID,358,VALID,0,
2009-08-24, 00:02:04,VALID,918.383,VALID,0,VALID,94.3855,VALID,0,VALID,20.2622,VALID,358,VALID,0.245312,
2009-08-24, 00:03:04,VALID,918.388,VALID,0,VALID,94.3169,VALID,0,VALID,20.2622,VALID,358,VALID,0.611719,
2009-08-24, 00:04:04,VALID,918.373,VALID,0,VALID,94.477,VALID,0,VALID,20.2622,VALID,358,VALID,0.579687,
2009-08-24, 00:05:04,VALID,918.368,VALID,0,VALID,94.3245,VALID,0,VALID,20.2622,VALID,358,VALID,0.54375,
2009-08-24, 00:06:04,VALID,918.372,VALID,0,VALID,94.3855,VALID,0,VALID,20.2217,VALID,358,VALID,0.541406,
2009-08-24, 00:07:04,VALID,918.391,VALID,0,VALID,94.416,VALID,0.107441,VALID,20.2622,VALID,358,VALID,0.500391,
2009-08-24, 00:08:04,VALID,918.392,VALID,0,VALID,94.1949,VALID,0,VALID,20.2232,VALID,358,VALID,0.367578,
2009-08-24, 00:09:04,VALID,918.402,VALID,0,VALID,94.4008,VALID,0,VALID,20.2427,VALID,358,VALID,0.495703,
2009-08-24, 00:10:04,VALID,918.414,VALID,0,VALID,94.2788,VALID,0,VALID,20.2427,VALID,358,VALID,0.746875,
2009-08-24, 00:11:04,VALID,918.41,VALID,0,VALID,94.2254,VALID,0,VALID,20.2232,VALID,358,VALID,0.623828,
2009-08-24, 00:12:04,VALID,918.386,VALID,0,VALID,94.1797,VALID,0,VALID,20.2232,VALID,358,VALID,0.869141,
2009-08-24, 00:13:04,VALID,918.415,VALID,0,VALID,94.3855,VALID,0.107441,VALID,20.2412,VALID,358,VALID,0.694141,
2009-08-24, 00:14:04,VALID,918.399,VALID,0,VALID,94.0806,VALID,0.107441,VALID,20.2427,VALID,358,VALID,0.793359,
2009-08-24, 00:15:04,VALID,918.411,VALID,0,VALID,93.9281,VALID,0,VALID,20.2037,VALID,358,VALID,0.660547,
2009-08-24, 00:16:04,VALID,918.404,VALID,0,VALID,93.7604,VALID,0.107441,VALID,20.1647,VALID,358,VALID,1.02188,
2009-08-24, 00:17:04,VALID,918.399,VALID,0,VALID,93.8976,VALID,0,VALID,20.1452,VALID,358,VALID,1.19023,
2009-08-24, 00:18:04,VALID,918.371,VALID,0,VALID,93.7909,VALID,0,VALID,20.1242,VALID,358,VALID,0.810547,
2009-08-24, 00:19:04,VALID,918.367,VALID,0,VALID,93.8824,VALID,0,VALID,20.1257,VALID,358,VALID,1.32617,
2009-08-24, 00:20:04,VALID,918.35,VALID,0,VALID,93.8366,VALID,0.107441,VALID,20.1257,VALID,358,VALID,1.18281,
2009-08-24, 00:21:04,VALID,918.367,VALID,0,VALID,93.7833,VALID,0,VALID,20.1062,VALID,358,VALID,0.713281,
2009-08-24, 00:22:04,VALID,918.367,VALID,0,VALID,93.9738,VALID,0,VALID,20.1257,VALID,358,VALID,0.850781,
2009-08-24, 00:23:04,VALID,918.321,VALID,0,VALID,93.9434,VALID,0,VALID,20.1452,VALID,358,VALID,0.421875,
2009-08-24, 00:24:04,VALID,918.32,VALID,0,VALID,94.0882,VALID,0.107441,VALID,20.1452,VALID,358,VALID,0.416406,
2009-08-24, 00:25:04,VALID,918.303,VALID,0,VALID,93.951,VALID,0,VALID,20.1452,VALID,358,VALID,0.6125,
2009-08-24, 00:26:04,VALID,918.293,VALID,0,VALID,94.073,VALID,0,VALID,20.1857,VALID,358,VALID,0.480078,
2009-08-24, 00:27:04,VALID,918.276,VALID,0,VALID,94.012,VALID,0,VALID,20.1647,VALID,358,VALID,0.509766,
2009-08-24, 00:28:04,VALID,918.309,VALID,0,VALID,94.0577,VALID,0.107441,VALID,20.1647,VALID,358,VALID,0.113281,
2009-08-24, 00:29:04,VALID,918.293,VALID,0,VALID,93.9891,VALID,0,VALID,20.1842,VALID,358,VALID,0.0257812,
2009-08-24, 00:30:04,VALID,918.321,VALID,0,VALID,93.8747,VALID,0.107441,VALID,20.1842,VALID,358,VALID,0.00585938,
2009-08-24, 00:31:04,VALID,918.289,VALID,0,VALID,93.768,VALID,0,VALID,20.1647,VALID,358,VALID,0,
2009-08-24, 00:32:04,VALID,918.306,VALID,0,VALID,93.7985,VALID,0,VALID,20.1647,VALID,358,VALID,0,
2009-08-24, 00:33:04,VALID,918.292,VALID,0,VALID,93.829,VALID,0,VALID,20.2037,VALID,358,VALID,0.382422,
2009-08-24, 00:34:04,VALID,918.255,VALID,0,VALID,93.9129,VALID,0.107441,VALID,20.2232,VALID,358,VALID,0.343359,
2009-08-24, 00:35:04,VALID,918.264,VALID,0,VALID,93.9586,VALID,0,VALID,20.2232,VALID,358,VALID,0.253125,
2009-08-24, 00:36:04,VALID,918.297,VALID,0,VALID,93.8671,VALID,0.107441,VALID,20.2232,VALID,358,VALID,0.05,
2009-08-24, 00:37:04,VALID,918.239,VALID,0,VALID,93.8824,VALID,0.107441,VALID,20.2232,VALID,358,VALID,0.389453,
2009-08-24, 00:38:04,VALID,918.29,VALID,0,VALID,93.6842,VALID,0,VALID,20.2037,VALID,358,VALID,0.214453,
2009-08-24, 00:39:04,VALID,918.272,VALID,0,VALID,93.8671,VALID,0,VALID,20.1842,VALID,358,VALID,0.21875,
2009-08-24, 00:40:04,VALID,918.272,VALID,0,VALID,93.8595,VALID,0,VALID,20.1842,VALID,358,VALID,0.577734,
2009-08-24, 00:41:04,VALID,918.271,VALID,0,VALID,94.0196,VALID,0.107441,VALID,20.1827,VALID,358,VALID,0.739453,
2009-08-24, 00:42:04,VALID,918.271,VALID,0,VALID,93.9815,VALID,0,VALID,20.1827,VALID,358,VALID,0.657031,
2009-08-24, 00:43:04,VALID,918.218,VALID,0,VALID,93.6994,VALID,0,VALID,20.1647,VALID,358,VALID,0.883594,
2009-08-24, 00:44:04,VALID,918.243,VALID,0,VALID,93.6308,VALID,0,VALID,20.1257,VALID,358,VALID,0.771484,
2009-08-24, 00:45:04,VALID,918.243,VALID,0,VALID,93.8519,VALID,0,VALID,20.1257,VALID,358,VALID,0.842969,
2009-08-24, 00:46:04,VALID,918.214,VALID,0,VALID,93.9205,VALID,0,VALID,20.1062,VALID,358,VALID,0.666797,
2009-08-24, 00:47:04,VALID,918.225,VALID,0,VALID,94.0272,VALID,0,VALID,20.1062,VALID,358,VALID,0.576953,
2009-08-24, 00:48:04,VALID,918.187,VALID,0,VALID,93.9281,VALID,0,VALID,20.1062,VALID,358,VALID,0.353516,
2009-08-24, 00:49:04,VALID,918.212,VALID,0,VALID,93.9738,VALID,0,VALID,20.0867,VALID,358,VALID,0.366406,
2009-08-24, 00:50:04,VALID,918.224,VALID,0,VALID,93.9738,VALID,0,VALID,20.0672,VALID,358,VALID,0.584766,
2009-08-24, 00:51:04,VALID,918.22,VALID,0,VALID,93.8519,VALID,0,VALID,20.0477,VALID,358,VALID,0.401172,
2009-08-24, 00:52:04,VALID,918.201,VALID,0,VALID,93.8976,VALID,0,VALID,20.0267,VALID,358,VALID,0.333594,
2009-08-24, 00:53:04,VALID,918.201,VALID,0,VALID,93.8366,VALID,0,VALID,20.0493,VALID,358,VALID,0.580859,
2009-08-24, 00:54:04,VALID,918.176,VALID,0,VALID,93.8138,VALID,0,VALID,20.0298,VALID,358,VALID,0.582422,
2009-08-24, 00:55:04,VALID,918.185,VALID,0,VALID,93.8671,VALID,0,VALID,20.0103,VALID,358,VALID,0.452344,
2009-08-24, 00:56:04,VALID,918.165,VALID,0,VALID,93.8671,VALID,0,VALID,19.9908,VALID,358,VALID,0.604297,
2009-08-24, 00:57:04,VALID,918.169,VALID,0,VALID,93.9967,VALID,0,VALID,19.9713,VALID,358,VALID,0.566016,
2009-08-24, 00:58:04,VALID,918.122,VALID,0,VALID,94.1873,VALID,0,VALID,19.9908,VALID,358,VALID,0.803125,
2009-08-24, 00:59:04,VALID,918.147,VALID,0,VALID,94.1644,VALID,0,VALID,19.9908,VALID,358,VALID,0.664453,
2009-08-24, 01:00:04,VALID,918.144,VALID,0,VALID,94.1187,VALID,0,VALID,19.9908,VALID,358,VALID,0.899219,
2009-08-24, 01:01:04,VALID,918.135,VALID,0,VALID,94.1797,VALID,0,VALID,19.9697,VALID,358,VALID,0.744531,
2009-08-24, 01:02:04,VALID,918.137,VALID,0,VALID,94.1873,VALID,0,VALID,19.9908,VALID,358,VALID,0.669141,
2009-08-24, 01:03:04,VALID,918.122,VALID,0,VALID,94.2178,VALID,0,VALID,20.0103,VALID,358,VALID,0.496875,
2009-08-24, 01:04:04,VALID,918.107,VALID,0,VALID,94.2635,VALID,0,VALID,20.0103,VALID,358,VALID,0.303516,
2009-08-24, 01:05:04,VALID,918.098,VALID,0,VALID,94.1644,VALID,0,VALID,20.0103,VALID,358,VALID,0.299219,
2009-08-24, 01:06:04,VALID,918.078,VALID,0,VALID,94.1339,VALID,0,VALID,20.0118,VALID,358,VALID,0.412109,
2009-08-24, 01:07:04,VALID,918.089,VALID,0,VALID,93.9434,VALID,0,VALID,19.9713,VALID,358,VALID,0.364844,
2009-08-24, 01:08:04,VALID,918.081,VALID,0,VALID,93.9738,VALID,0,VALID,19.9308,VALID,358,VALID,0.365625,
2009-08-24, 01:09:04,VALID,918.067,VALID,0,VALID,94.0577,VALID,0,VALID,19.9502,VALID,358,VALID,0.23125,
2009-08-24, 01:10:04,VALID,918.042,VALID,0,VALID,94.0958,VALID,0,VALID,19.9308,VALID,358,VALID,0.328125,
2009-08-24, 01:11:04,VALID,918.036,VALID,0,VALID,94.2178,VALID,0,VALID,19.9308,VALID,358,VALID,0.287109,
2009-08-24, 01:12:04,VALID,918.006,VALID,0,VALID,94.2559,VALID,0,VALID,19.9308,VALID,358,VALID,0.632031,
2009-08-24, 01:13:04,VALID,917.983,VALID,0,VALID,94.3626,VALID,0,VALID,19.9502,VALID,358,VALID,0.786328,
2009-08-24, 01:14:04,VALID,917.983,VALID,0,VALID,94.3703,VALID,0,VALID,19.9502,VALID,358,VALID,0.55625,
2009-08-24, 01:15:04,VALID,917.983,VALID,0,VALID,94.4313,VALID,0,VALID,19.9697,VALID,358,VALID,0.359766,
2009-08-24, 01:16:04,VALID,917.973,VALID,0,VALID,94.3931,VALID,0,VALID,19.9697,VALID,358,VALID,0.509766,
2009-08-24, 01:17:04,VALID,917.953,VALID,0,VALID,94.3626,VALID,0,VALID,19.9697,VALID,358,VALID,0.556641,
2009-08-24, 01:18:04,VALID,917.931,VALID,0,VALID,94.2178,VALID,0,VALID,19.9518,VALID,358,VALID,0.755469,
2009-08-24, 01:19:04,VALID,917.916,VALID,0,VALID,94.4922,VALID,0,VALID,19.9308,VALID,358,VALID,0.969531,
2009-08-24, 01:20:04,VALID,917.929,VALID,0,VALID,94.4922,VALID,0,VALID,19.9308,VALID,358,VALID,0.846484,
2009-08-24, 01:21:04,VALID,917.883,VALID,0,VALID,94.5609,VALID,0,VALID,19.9502,VALID,358,VALID,0.905469,
2009-08-24, 01:22:04,VALID,917.894,VALID,0,VALID,94.5304,VALID,0,VALID,19.9502,VALID,358,VALID,0.96875,
2009-08-24, 01:23:04,VALID,917.893,VALID,0,VALID,94.5151,VALID,0,VALID,19.9713,VALID,358,VALID,1.00547,
2009-08-24, 01:24:04,VALID,917.896,VALID,0,VALID,94.5609,VALID,0,VALID,19.9502,VALID,358,VALID,1.00625,
2009-08-24, 01:25:04,VALID,917.883,VALID,0,VALID,94.5685,VALID,0,VALID,19.9908,VALID,358,VALID,0.915234,
2009-08-24, 01:26:04,VALID,917.872,VALID,0,VALID,94.4084,VALID,0,VALID,19.9908,VALID,358,VALID,0.88125,
2009-08-24, 01:27:04,VALID,917.865,VALID,0,VALID,94.5837,VALID,0,VALID,19.9697,VALID,358,VALID,0.725781,
2009-08-24, 01:28:04,VALID,917.855,VALID,0,VALID,94.6066,VALID,0,VALID,20.0103,VALID,358,VALID,0.893359,
2009-08-24, 01:29:04,VALID,917.866,VALID,0,VALID,94.5913,VALID,0,VALID,19.9892,VALID,358,VALID,0.696094,
2009-08-24, 01:30:04,VALID,917.863,VALID,0,VALID,94.6371,VALID,0,VALID,20.0087,VALID,358,VALID,0.910937,
2009-08-24, 01:31:04,VALID,917.887,VALID,0,VALID,94.5837,VALID,0,VALID,20.0298,VALID,358,VALID,1.10195,
2009-08-24, 01:32:04,VALID,917.878,VALID,0,VALID,94.6142,VALID,0,VALID,20.0493,VALID,358,VALID,0.572656,
2009-08-24, 01:33:04,VALID,917.873,VALID,0,VALID,94.5685,VALID,0,VALID,20.0282,VALID,358,VALID,0.598437,
2009-08-24, 01:34:04,VALID,917.888,VALID,0,VALID,94.5913,VALID,0,VALID,20.0688,VALID,358,VALID,0.751953,
2009-08-24, 01:35:04,VALID,917.881,VALID,0,VALID,94.5304,VALID,0,VALID,20.0477,VALID,358,VALID,0.590234,
2009-08-24, 01:36:04,VALID,917.844,VALID,0,VALID,94.4389,VALID,0,VALID,20.0282,VALID,358,VALID,0.881641,
2009-08-24, 01:37:04,VALID,917.843,VALID,0,VALID,94.4389,VALID,0,VALID,20.0477,VALID,358,VALID,0.705078,
2009-08-24, 01:38:04,VALID,917.807,VALID,0,VALID,94.4465,VALID,0,VALID,20.0493,VALID,358,VALID,0.619141,
2009-08-24, 01:39:04,VALID,917.802,VALID,0,VALID,94.2788,VALID,0,VALID,19.9892,VALID,358,VALID,0.843359,
2009-08-24, 01:40:04,VALID,917.759,VALID,0,VALID,94.355,VALID,0,VALID,20.0087,VALID,358,VALID,0.780859,
2009-08-24, 01:41:04,VALID,917.709,VALID,0,VALID,94.2788,VALID,0,VALID,20.0103,VALID,358,VALID,1.24609,
2009-08-24, 01:42:04,VALID,917.675,VALID,0,VALID,94.2254,VALID,0,VALID,19.9713,VALID,358,VALID,1.45234,
2009-08-24, 01:43:04,VALID,917.617,VALID,0,VALID,94.2102,VALID,0,VALID,19.9323,VALID,358,VALID,1.35117,
2009-08-24, 01:44:04,VALID,917.649,VALID,0,VALID,94.3398,VALID,0,VALID,19.9323,VALID,358,VALID,0.842969,
2009-08-24, 01:45:04,VALID,917.63,VALID,0,VALID,94.3398,VALID,0,VALID,19.9128,VALID,358,VALID,0.601953,
2009-08-24, 01:46:04,VALID,917.607,VALID,0,VALID,94.5227,VALID,0,VALID,19.9113,VALID,358,VALID,0.598047,
2009-08-24, 01:47:04,VALID,917.61,VALID,0,VALID,94.5609,VALID,0,VALID,19.9308,VALID,358,VALID,0.469141,
2009-08-24, 01:48:04,VALID,917.602,VALID,0,VALID,94.6218,VALID,0,VALID,19.9502,VALID,358,VALID,0.541797,
2009-08-24, 01:49:04,VALID,917.63,VALID,0,VALID,94.6066,VALID,0,VALID,19.9908,VALID,358,VALID,0.642187,
2009-08-24, 01:50:04,VALID,917.595,VALID,0,VALID,94.6447,VALID,0,VALID,19.9697,VALID,358,VALID,0.770312,
2009-08-24, 01:51:04,VALID,917.602,VALID,0,VALID,94.5913,VALID,0.107441,VALID,19.9697,VALID,358,VALID,0.764453,
2009-08-24, 01:52:04,VALID,917.593,VALID,0,VALID,94.5075,VALID,0,VALID,19.9502,VALID,358,VALID,1.1168,
2009-08-24, 01:53:04,VALID,917.548,VALID,0,VALID,94.3626,VALID,0,VALID,19.9113,VALID,358,VALID,1.07305,
2009-08-24, 01:54:04,VALID,917.562,VALID,0,VALID,94.3398,VALID,0,VALID,19.8723,VALID,358,VALID,1.00898,
2009-08-24, 01:55:04,VALID,917.566,VALID,0,VALID,94.2712,VALID,0,VALID,19.8333,VALID,358,VALID,0.810547,
2009-08-24, 01:56:04,VALID,917.56,VALID,0,VALID,94.294,VALID,0,VALID,19.7928,VALID,358,VALID,0.795313,
2009-08-24, 01:57:04,VALID,917.563,VALID,0,VALID,94.3855,VALID,0,VALID,19.7748,VALID,358,VALID,0.558984,
2009-08-24, 01:58:04,VALID,917.578,VALID,0,VALID,94.4389,VALID,0,VALID,19.7748,VALID,358,VALID,0.698438,
2009-08-24, 01:59:04,VALID,917.575,VALID,0,VALID,94.538,VALID,0,VALID,19.7748,VALID,358,VALID,0.491406,
2009-08-24, 02:00:04,VALID,917.56,VALID,0,VALID,94.4922,VALID,0,VALID,19.7553,VALID,358,VALID,0.429688,
2009-08-24, 02:01:04,VALID,917.53,VALID,0,VALID,94.5304,VALID,0,VALID,19.7553,VALID,358,VALID,0.869922,
2009-08-24, 02:02:04,VALID,917.521,VALID,0,VALID,94.538,VALID,0,VALID,19.7358,VALID,356,VALID,1.21055,
2009-08-24, 02:03:04,VALID,917.536,VALID,0,VALID,94.5913,VALID,0,VALID,19.7358,VALID,356,VALID,0.626172,
2009-08-24, 02:04:04,VALID,917.519,VALID,0,VALID,94.5913,VALID,0,VALID,19.7358,VALID,356,VALID,0.719922,
2009-08-24, 02:05:04,VALID,917.515,VALID,0,VALID,94.6752,VALID,0,VALID,19.7358,VALID,356,VALID,0.501953,
2009-08-24, 02:06:04,VALID,917.507,VALID,0,VALID,94.6905,VALID,0,VALID,19.7358,VALID,356,VALID,0.633594,
2009-08-24, 02:07:04,VALID,917.508,VALID,0,VALID,94.66,VALID,0,VALID,19.7568,VALID,356,VALID,0.641406,
2009-08-24, 02:08:04,VALID,917.507,VALID,0,VALID,94.6905,VALID,0,VALID,19.7568,VALID,356,VALID,0.554297,
2009-08-24, 02:09:04,VALID,917.474,VALID,0,VALID,94.66,VALID,0,VALID,19.7373,VALID,356,VALID,0.7625,
2009-08-24, 02:10:04,VALID,917.468,VALID,0,VALID,94.6828,VALID,0,VALID,19.7358,VALID,356,VALID,0.858594,
2009-08-24, 02:11:04,VALID,917.453,VALID,0,VALID,94.7514,VALID,0,VALID,19.7163,VALID,356,VALID,0.530078,
2009-08-24, 02:12:04,VALID,917.43,VALID,0,VALID,94.7209,VALID,0,VALID,19.7568,VALID,356,VALID,0.382813,
2009-08-24, 02:13:04,VALID,917.412,VALID,0,VALID,94.7286,VALID,0,VALID,19.7373,VALID,356,VALID,0.474219,
2009-08-24, 02:14:04,VALID,917.373,VALID,0,VALID,94.6828,VALID,0,VALID,19.7163,VALID,356,VALID,0.551172,
2009-08-24, 02:15:04,VALID,917.394,VALID,0,VALID,94.7286,VALID,0,VALID,19.7163,VALID,356,VALID,0.285547,
2009-08-24, 02:16:04,VALID,917.374,VALID,0,VALID,94.7057,VALID,0,VALID,19.6968,VALID,356,VALID,0.290234,
2009-08-24, 02:17:04,VALID,917.362,VALID,0,VALID,94.7667,VALID,0,VALID,19.7178,VALID,356,VALID,0.438281,
2009-08-24, 02:18:04,VALID,917.383,VALID,0,VALID,94.8048,VALID,0,VALID,19.7163,VALID,356,VALID,0.653906,
2009-08-24, 02:19:04,VALID,917.371,VALID,0,VALID,94.8124,VALID,0,VALID,19.7358,VALID,356,VALID,0.683594,
2009-08-24, 02:20:04,VALID,917.347,VALID,0,VALID,94.7896,VALID,0,VALID,19.7358,VALID,356,VALID,0.626172,
2009-08-24, 02:21:04,VALID,917.343,VALID,0,VALID,94.7896,VALID,0,VALID,19.7553,VALID,356,VALID,0.532422,
2009-08-24, 02:22:04,VALID,917.369,VALID,0,VALID,94.6752,VALID,0,VALID,19.6968,VALID,356,VALID,0.578516,
2009-08-24, 02:23:04,VALID,917.344,VALID,0,VALID,94.7286,VALID,0,VALID,19.7358,VALID,356,VALID,0.273828,
2009-08-24, 02:24:04,VALID,917.355,VALID,0,VALID,94.7896,VALID,0,VALID,19.7163,VALID,356,VALID,0.246875,
2009-08-24, 02:25:04,VALID,917.344,VALID,0,VALID,94.7819,VALID,0,VALID,19.7358,VALID,356,VALID,0.315234,
2009-08-24, 02:26:04,VALID,917.359,VALID,0,VALID,94.8124,VALID,0,VALID,19.7553,VALID,356,VALID,0.410937,
2009-08-24, 02:27:04,VALID,917.392,VALID,0,VALID,94.7591,VALID,0,VALID,19.7553,VALID,356,VALID,0.445313,
2009-08-24, 02:28:04,VALID,917.386,VALID,0,VALID,94.7286,VALID,0,VALID,19.7748,VALID,356,VALID,0.558594,
2009-08-24, 02:29:04,VALID,917.424,VALID,0,VALID,94.7133,VALID,0,VALID,19.7958,VALID,356,VALID,0.508203,
2009-08-24, 02:30:04,VALID,917.452,VALID,0,VALID,94.5075,VALID,0,VALID,19.7358,VALID,356,VALID,0.631641,
2009-08-24, 02:31:04,VALID,917.424,VALID,0,VALID,94.4541,VALID,0,VALID,19.7163,VALID,356,VALID,0.621875,
2009-08-24, 02:32:04,VALID,917.424,VALID,0,VALID,94.599,VALID,0,VALID,19.7163,VALID,356,VALID,0.772266,
2009-08-24, 02:33:04,VALID,917.428,VALID,0,VALID,94.4999,VALID,0,VALID,19.7178,VALID,356,VALID,1.18359,
2009-08-24, 02:34:04,VALID,917.427,VALID,0,VALID,94.6523,VALID,0,VALID,19.7163,VALID,356,VALID,0.855078,
2009-08-24, 02:35:04,VALID,917.44,VALID,0,VALID,94.5532,VALID,0,VALID,19.7373,VALID,356,VALID,0.777734,
2009-08-24, 02:36:04,VALID,917.467,VALID,0,VALID,94.538,VALID,0,VALID,19.6968,VALID,356,VALID,0.532422,
2009-08-24, 02:37:04,VALID,917.434,VALID,0,VALID,94.5151,VALID,0,VALID,19.6968,VALID,356,VALID,0.447656,
2009-08-24, 02:38:04,VALID,917.408,VALID,0,VALID,94.5761,VALID,0,VALID,19.6968,VALID,356,VALID,0.119141,
2009-08-24, 02:39:04,VALID,917.429,VALID,0,VALID,94.6295,VALID,0,VALID,19.7163,VALID,356,VALID,0.114063,
2009-08-24, 02:40:04,VALID,917.418,VALID,0,VALID,94.7209,VALID,0,VALID,19.7358,VALID,356,VALID,0,
2009-08-24, 02:41:04,VALID,917.387,VALID,0,VALID,94.7133,VALID,0,VALID,19.7553,VALID,356,VALID,0.529688,
2009-08-24, 02:42:04,VALID,917.393,VALID,0,VALID,94.7209,VALID,0,VALID,19.7943,VALID,356,VALID,0.385156,
2009-08-24, 02:43:04,VALID,917.38,VALID,0,VALID,94.6828,VALID,0,VALID,19.8138,VALID,356,VALID,0.311328,
2009-08-24, 02:44:04,VALID,917.389,VALID,0,VALID,94.4389,VALID,0,VALID,19.7763,VALID,356,VALID,1.04609,
2009-08-24, 02:45:04,VALID,917.396,VALID,0,VALID,94.5075,VALID,0,VALID,19.7553,VALID,356,VALID,0.904688,
2009-08-24, 02:46:04,VALID,917.373,VALID,0,VALID,94.538,VALID,0,VALID,19.7748,VALID,356,VALID,0.385938,
2009-08-24, 02:47:04,VALID,917.392,VALID,0,VALID,94.5685,VALID,0,VALID,19.7943,VALID,356,VALID,0,
2009-08-24, 02:48:04,VALID,917.389,VALID,0,VALID,94.5304,VALID,0,VALID,19.8333,VALID,356,VALID,0,
2009-08-24, 02:49:04,VALID,917.355,VALID,0,VALID,94.4084,VALID,0,VALID,19.8333,VALID,356,VALID,0,
2009-08-24, 02:50:04,VALID,917.384,VALID,0,VALID,94.3245,VALID,0,VALID,19.8333,VALID,356,VALID,0,
2009-08-24, 02:51:04,VALID,917.387,VALID,0,VALID,94.1949,VALID,0,VALID,19.8333,VALID,356,VALID,0,
2009-08-24, 02:52:04,VALID,917.369,VALID,0,VALID,94.0196,VALID,0,VALID,19.8138,VALID,356,VALID,0.344141,
2009-08-24, 02:53:04,VALID,917.381,VALID,0,VALID,93.951,VALID,0,VALID,19.7943,VALID,356,VALID,0.269922,
2009-08-24, 02:54:04,VALID,917.365,VALID,0,VALID,93.9434,VALID,0,VALID,19.7943,VALID,356,VALID,0.223828,
2009-08-24, 02:55:04,VALID,917.354,VALID,0,VALID,94.073,VALID,0,VALID,19.8348,VALID,356,VALID,0.0710938,
2009-08-24, 02:56:04,VALID,917.336,VALID,0,VALID,94.073,VALID,0,VALID,19.8138,VALID,356,VALID,0.360547,
2009-08-24, 02:57:04,VALID,917.368,VALID,0,VALID,93.9434,VALID,0,VALID,19.8138,VALID,356,VALID,0.458203,
2009-08-24, 02:58:04,VALID,917.342,VALID,0,VALID,93.8671,VALID,0,VALID,19.7943,VALID,356,VALID,0.303906,
2009-08-24, 02:59:04,VALID,917.337,VALID,0,VALID,93.8824,VALID,0,VALID,19.7958,VALID,356,VALID,0.319922,
2009-08-24, 03:00:04,VALID,917.311,VALID,0,VALID,93.9586,VALID,0,VALID,19.7748,VALID,356,VALID,0.671094,
2009-08-24, 03:01:04,VALID,917.326,VALID,0,VALID,93.9738,VALID,0,VALID,19.7553,VALID,356,VALID,0.794531,
2009-08-24, 03:02:04,VALID,917.326,VALID,0,VALID,94.0425,VALID,0,VALID,19.7358,VALID,356,VALID,0.729688,
2009-08-24, 03:03:04,VALID,917.33,VALID,0,VALID,94.0501,VALID,0,VALID,19.7163,VALID,356,VALID,0.608984,
2009-08-24, 03:04:04,VALID,917.326,VALID,0,VALID,94.2635,VALID,0,VALID,19.7358,VALID,356,VALID,0.412109,
2009-08-24, 03:05:04,VALID,917.339,VALID,0,VALID,94.2635,VALID,0,VALID,19.7358,VALID,356,VALID,0.326953,
2009-08-24, 03:06:04,VALID,917.335,VALID,0,VALID,94.2788,VALID,0,VALID,19.7358,VALID,356,VALID,0.229687,
2009-08-24, 03:07:04,VALID,917.328,VALID,0,VALID,94.2254,VALID,0,VALID,19.7358,VALID,356,VALID,0.485547,
2009-08-24, 03:08:04,VALID,917.33,VALID,0,VALID,94.2102,VALID,0,VALID,19.7358,VALID,356,VALID,0.740625,
2009-08-24, 03:09:04,VALID,917.303,VALID,0,VALID,94.2635,VALID,0,VALID,19.7163,VALID,356,VALID,0.426172,
2009-08-24, 03:10:04,VALID,917.281,VALID,0,VALID,94.1721,VALID,0,VALID,19.7358,VALID,356,VALID,0.492188,
2009-08-24, 03:11:04,VALID,917.277,VALID,0,VALID,94.2407,VALID,0,VALID,19.7358,VALID,356,VALID,0.295312,
2009-08-24, 03:12:04,VALID,917.231,VALID,0,VALID,94.1949,VALID,0,VALID,19.7163,VALID,356,VALID,0.270703,
2009-08-24, 03:13:04,VALID,917.225,VALID,0,VALID,94.2026,VALID,0,VALID,19.7358,VALID,356,VALID,0.666797,
2009-08-24, 03:14:04,VALID,917.203,VALID,0,VALID,94.0653,VALID,0.107441,VALID,19.6968,VALID,356,VALID,0.742578,
2009-08-24, 03:15:04,VALID,917.208,VALID,0,VALID,94.012,VALID,0,VALID,19.6578,VALID,356,VALID,0.563672,
2009-08-24, 03:16:04,VALID,917.172,VALID,0,VALID,93.9281,VALID,0,VALID,19.6578,VALID,356,VALID,0.778906,
2009-08-24, 03:17:04,VALID,917.193,VALID,0,VALID,93.9586,VALID,0,VALID,19.6368,VALID,356,VALID,0.645312,
2009-08-24, 03:18:04,VALID,917.193,VALID,0,VALID,93.9815,VALID,0,VALID,19.6383,VALID,356,VALID,0.743359,
2009-08-24, 03:19:04,VALID,917.203,VALID,0,VALID,93.9586,VALID,0,VALID,19.6188,VALID,356,VALID,0.611719,
2009-08-24, 03:20:04,VALID,917.198,VALID,0,VALID,93.9586,VALID,0,VALID,19.5993,VALID,356,VALID,0.69375,
2009-08-24, 03:21:04,VALID,917.182,VALID,0,VALID,93.9815,VALID,0,VALID,19.5993,VALID,356,VALID,0.758594,
2009-08-24, 03:22:04,VALID,917.18,VALID,0,VALID,94.012,VALID,0,VALID,19.6008,VALID,356,VALID,0.789063,
2009-08-24, 03:23:04,VALID,917.139,VALID,0,VALID,94.0653,VALID,0,VALID,19.5603,VALID,356,VALID,0.887891,
2009-08-24, 03:24:04,VALID,917.129,VALID,0,VALID,94.1339,VALID,0,VALID,19.5214,VALID,356,VALID,0.726563,
2009-08-24, 03:25:04,VALID,917.127,VALID,0,VALID,94.2026,VALID,0,VALID,19.5214,VALID,356,VALID,0.494922,
2009-08-24, 03:26:04,VALID,917.112,VALID,0,VALID,94.2407,VALID,0,VALID,19.5228,VALID,356,VALID,0.635938,
2009-08-24, 03:27:04,VALID,917.099,VALID,0,VALID,94.3245,VALID,0,VALID,19.4824,VALID,356,VALID,0.482812,
2009-08-24, 03:28:04,VALID,917.106,VALID,0,VALID,94.3474,VALID,0,VALID,19.4824,VALID,356,VALID,0.0398437,
2009-08-24, 03:29:04,VALID,917.066,VALID,0,VALID,94.4389,VALID,0,VALID,19.4824,VALID,356,VALID,0.311328,
2009-08-24, 03:30:04,VALID,917.093,VALID,0,VALID,94.4236,VALID,0,VALID,19.4629,VALID,356,VALID,0.323828,
2009-08-24, 03:31:04,VALID,917.109,VALID,0,VALID,94.3855,VALID,0,VALID,19.4629,VALID,356,VALID,0.234375,
2009-08-24, 03:32:04,VALID,917.12,VALID,0,VALID,94.4541,VALID,0,VALID,19.4644,VALID,356,VALID,0.1625,
2009-08-24, 03:33:04,VALID,917.119,VALID,0,VALID,94.4541,VALID,0,VALID,19.4434,VALID,356,VALID,0.161328,
2009-08-24, 03:34:04,VALID,917.131,VALID,0,VALID,94.4922,VALID,0,VALID,19.4644,VALID,356,VALID,0,
2009-08-24, 03:35:04,VALID,917.134,VALID,0,VALID,94.4541,VALID,0,VALID,19.4434,VALID,356,VALID,0,
2009-08-24, 03:36:04,VALID,917.114,VALID,0,VALID,94.4999,VALID,0,VALID,19.4644,VALID,356,VALID,0.0015625,
2009-08-24, 03:37:04,VALID,917.113,VALID,0,VALID,94.4846,VALID,0,VALID,19.4434,VALID,356,VALID,0.207031,
2009-08-24, 03:38:04,VALID,917.1,VALID,0,VALID,94.4694,VALID,0,VALID,19.4239,VALID,356,VALID,0.127734,
2009-08-24, 03:39:04,VALID,917.104,VALID,0,VALID,94.4922,VALID,0,VALID,19.4044,VALID,356,VALID,0.0304688,
2009-08-24, 03:40:04,VALID,917.117,VALID,0,VALID,94.5227,VALID,0,VALID,19.4239,VALID,356,VALID,0.24375,
2009-08-24, 03:41:04,VALID,917.113,VALID,0,VALID,94.3093,VALID,0,VALID,19.3849,VALID,356,VALID,0.561328,
2009-08-24, 03:42:04,VALID,917.142,VALID,0,VALID,94.2102,VALID,0,VALID,19.3654,VALID,356,VALID,0.402734,
2009-08-24, 03:43:04,VALID,917.135,VALID,0,VALID,94.1187,VALID,0,VALID,19.3654,VALID,356,VALID,0.471875,
2009-08-24, 03:44:04,VALID,917.121,VALID,0,VALID,94.1187,VALID,0,VALID,19.4044,VALID,356,VALID,0.188672,